Tracking 29892 objects as of 21-Nov-2024
HD Live streaming from Space Station
objects crossing your sky now

STARLINK-2651

Track STARLINK-2651 now!
10-day predictions
STARLINK-2651 is classified as:


NORAD ID: 48654
Int'l Code: 2021-044S
Perigee: 553.2 km
Apogee: 555.3 km
Inclination: 53.1 °
Period: 95.6 minutes
Semi major axis: 6925 km
RCS: Unknown
Launch date: May 26, 2021
Source: United States (US)
Launch site: AIR FORCE EASTERN TEST RANGE (AFETR)
Your satellite tracking list
Your tracking list is empty




NASA's NSSDC Master Catalog

Two Line Element Set (TLE):
1 48654U 21044S   24325.75994677  .00004577  00000-0  32571-3 0  9992
2 48654  53.0531  89.1674 0001491 105.2149 254.9005 15.06426247192271
Source of the keplerian elements: AFSPC